AMC-7 (GE-7)

Last updated on Feb. 9, 2020, 4:43 a.m. UTC

1 26495U 00054B   20039.80314819 -.00000226  00000-0  00000-0 0  9994
2 26495   1.0587  97.4160 0002065 238.2382 260.1143  0.99137252 70964
UTC
Height (km)
Latitude
Longitude
Inclination
Orbital Period
UTC large
Height (km)
Speed (km/s)
/
Latitude / Longitude
Inclination (degrees)
Orbital Period (minutes)
Azimuth
Elevation
Range (km)
Doppler Factor
iOS Compass Heading
iOS Angle

Next 30 passes for location: Hong Kong

Rise time Rise Azimuth (degrees) Set time Set Azimuth (degrees) Duration Max altitude (degrees)

No matching passes for this satellites